DW0542 Weather Reports


time (UTC)temp
F
wind
direction
speed
knots
gust
knots
rain 1hr
in
rain 24hr
in
rain mn
in
humidity
%
barometer
mb
20210927061543 49 290 0.0 0.0 0.00 0.01 0.00 90 1013.9
20210927060005 50 290 0.0 0.0 0.00 0.01 0.00 90 1013.9
20210927054502 50 290 0.0 0.0 0.00 0.01 0.00 90 1013.8
20210927053252 49 290 0.0 0.9 0.00 0.01 0.00 90 1013.7
20210927051624 50 290 0.0 0.0 0.00 0.01 0.00 90 1013.5
20210927050248 50 290 0.0 0.0 0.00 0.01 0.00 89 1013.2
20210927044648 50 290 0.0 0.0 0.00 0.01 0.00 90 1013.1
20210927043205 50 290 0.0 0.0 0.00 0.01 0.00 89 1013.1
20210927041617 50 290 0.0 0.0 0.00 0.01 0.00 89 1012.9
20210927040057 50 290 0.0 0.0 0.00 0.01 0.01 89 1012.8
20210927034511 51 290 0.0 0.0 0.00 0.01 0.01 89 1012.8
20210927033012 51 290 0.0 0.0 0.00 0.01 0.01 89 1012.5
20210927031709 51 290 0.0 0.0 0.00 0.01 0.01 89 1012.6
20210927030056 51 290 0.0 0.0 0.00 0.01 0.01 88 1012.7
20210927024601 51 290 0.0 0.0 0.00 0.01 0.01 88 1012.7
20210927023241 51 290 0.0 0.0 0.00 0.01 0.01 88 1012.6
20210927021525 52 290 0.0 0.0 0.00 0.01 0.01 88 1012.4
20210927020033 52 290 0.0 0.0 0.00 0.01 0.01 87 1012.3
20210927013138 53 290 0.0 0.0 0.00 0.01 0.01 86 1012.2
20210927011606 53 290 0.0 0.0 0.00 0.01 0.01 85 1012.1
20210927010120 54 290 0.0 0.0 0.00 0.01 0.01 84 1012.1
20210927004648 54 290 0.0 0.0 0.00 0.01 0.01 82 1011.9
20210927003056 55 290 0.0 0.0 0.00 0.01 0.01 80 1011.8
20210927001551 57 290 0.0 0.0 0.00 0.01 0.01 77 1011.7
20210927000052 60 290 0.0 0.0 0.00 0.01 0.01 70 1011.4
20210926234522 62 290 0.0 0.9 0.00 0.01 0.01 67 1011.2
20210926233041 62 290 1.7 5.2 0.00 0.01 0.01 63 1011.0
20210926231522 63 264 2.6 7.0 0.00 0.01 0.01 61 1010.9
20210926224501 64 269 6.1 8.7 0.00 0.01 0.01 62 1010.6
20210926223110 65 273 3.5 7.0 0.00 0.01 0.01 60 1010.4
20210926221657 66 257 4.3 7.8 0.00 0.01 0.01 60 1010.3
20210926220110 66 271 3.5 10.4 0.00 0.01 0.01 59 1010.0
20210926214617 67 286 8.7 14.8 0.00 0.01 0.01 56 1009.7
20210926213054 67 265 7.0 12.2 0.00 0.01 0.01 57 1009.5
20210926211530 67 292 9.6 15.6 0.00 0.01 0.01 54 1009.4
20210926210041 67 289 10.4 19.1 0.00 0.01 0.01 53 1009.2
20210926204648 67 289 8.7 16.5 0.00 0.01 0.01 53 1008.9
20210926203135 67 274 9.6 15.6 0.00 0.01 0.01 52 1008.8
20210926201723 67 293 11.3 18.2 0.00 0.01 0.01 55 1008.8
20210926200105 67 301 9.6 15.6 0.00 0.01 0.01 52 1008.8
20210926194705 67 287 7.8 16.5 0.00 0.01 0.01 55 1008.6
20210926193032 67 260 8.7 17.4 0.00 0.01 0.01 53 1008.5
20210926191541 67 280 11.3 17.4 0.00 0.01 0.01 52 1008.3
20210926190026 68 248 7.8 16.5 0.00 0.01 0.01 47 1008.1
20210926184521 68 313 12.2 20.0 0.00 0.01 0.01 50 1008.1
20210926183040 68 301 7.8 13.9 0.00 0.01 0.01 51 1008.1
20210926180020 68 277 8.7 13.9 0.00 0.01 0.01 55 1008.2
20210926174532 68 280 7.0 15.6 0.00 0.01 0.01 59 1008.2
20210926173025 68 300 7.8 11.3 0.00 0.01 0.01 61 1008.1
20210926171517 67 291 9.6 13.0 0.00 0.01 0.01 63 1008.2
20210926170006 67 273 7.0 13.9 0.00 0.01 0.01 67 1008.4
20210926163005 67 295 7.8 12.2 0.00 0.01 0.01 66 1008.4
20210926161509 67 260 7.8 12.2 0.00 0.01 0.01 67 1008.3
20210926160138 67 299 7.8 11.3 0.00 0.01 0.01 68 1008.4
20210926154749 67 295 4.3 10.4 0.00 0.01 0.01 71 1008.5
20210926153107 66 267 6.1 11.3 0.00 0.01 0.01 75 1008.7
20210926151821 66 300 5.2 9.6 0.00 0.01 0.01 71 1008.8
20210926150141 66 291 5.2 9.6 0.00 0.01 0.01 72 1008.9
20210926144606 66 320 6.1 15.6 0.00 0.01 0.01 72 1008.9
20210926143127 65 325 7.8 13.0 0.00 0.01 0.01 73 1009.0
20210926141603 65 305 7.8 13.9 0.00 0.01 0.01 76 1009.0
20210926140141 65 286 7.8 13.0 0.00 0.01 0.01 77 1009.0
20210926134706 64 318 7.8 12.2 0.00 0.01 0.01 80 1008.9
20210926133036 63 290 7.8 13.0 0.00 0.01 0.01 80 1009.1
20210926131606 63 326 9.6 13.0 0.00 0.02 0.01 81 1009.0
20210926130038 62 299 6.1 10.4 0.00 0.02 0.01 81 1008.7
20210926124547 62 311 7.0 13.0 0.00 0.02 0.01 82 1008.8
20210926123037 62 311 6.1 12.2 0.00 0.02 0.01 83 1008.8
20210926121545 61 307 7.8 11.3 0.00 0.02 0.01 85 1008.5
20210926120107 60 324 4.3 8.7 0.00 0.02 0.01 84 1008.5
20210926114553 60 320 4.3 9.6 0.00 0.02 0.01 84 1008.5
20210926113045 61 320 5.2 9.6 0.00 0.02 0.01 84 1008.4
20210926111527 61 317 2.6 8.7 0.00 0.02 0.01 84 1008.3
20210926110026 61 323 4.3 8.7 0.01 0.02 0.01 83 1008.1
20210926104519 61 317 3.5 8.7 0.01 0.02 0.01 84 1008.1
20210926101516 61 291 2.6 5.2 0.01 0.02 0.01 89 1008.2
20210926100014 62 270 0.9 3.5 0.00 0.01 0.00 87 1008.4
20210926094533 62 290 1.7 4.3 0.00 0.01 0.00 88 1008.2
20210926093019 61 288 0.9 1.7 0.00 0.01 0.00 90 1008.2
20210926091532 61 289 0.0 0.9 0.00 0.01 0.00 91 1008.3
20210926090014 62 299 0.0 0.0 0.00 0.01 0.00 90 1008.5
20210926084505 62 311 0.0 0.0 0.00 0.01 0.00 91 1008.4
20210926083013 62 311 0.0 3.5 0.00 0.01 0.00 92 1008.5
20210926081617 62 316 1.7 3.5 0.00 0.01 0.00 92 1008.5
20210926080158 62 315 0.0 0.0 0.00 0.01 0.00 91 1009.2
20210926074643 62 315 0.0 1.7 0.00 0.01 0.00 92 1009.3
20210926073246 62 315 0.0 0.0 0.00 0.01 0.00 92 1009.0
20210926071706 62 315 0.0 0.0 0.00 0.01 0.00 92 1009.4
20210926070121 62 92 0.0 2.6 0.00 0.01 0.00 93 1009.4
20210926064619 62 89 0.0 0.0 0.00 0.01 0.00 92 1009.3
20210926063130 62 89 0.0 0.0 0.00 0.01 0.00 93 1009.6